Location: *
(34.6780°N, 135.8310°E)
Time: 06:42:28
(UTC+00:00)

ATLAS 2AS CENTAUR R/B - Pass Details

Date: 18 October 2019
Orbit: 926 x 1286 km, 63.7° (Epoch: 09 November)

Event Time Altitude Azimuth Distance (km) Brightness Sun altitude
Exits shadow 19:44:31 24° 272° (W) 2,349 3.8 -17.3°
Maximum altitude 19:47:54 33° 312° (NW) 2,004 3.7 -16.6°
Drops below altitude 10° 19:55:01 10° 15° (NNE) 3,285 5.4 -15.1°
Sets 19:58:13 0° 25° (NNE) 4,239 6.1 -14.5°
